[[{"header":{"parameterUnit":"m.s-1","parameterCategory":1,"la1":30.2991,"la2":30.254,"lo1":-89.0895,"lo2":-89.0444,"dy":0.0017,"dx":0.0017,"nx":28,"ny":28,"refTime":"2024-03-13T21:00:00:Z","depth":0,"parameterNumber":2,"parameterNumberName":"U-component_of_WINDS"},"data":[0,0,0,0,0,0,0,0,0,0,0,0,0,0,0,0,0,0,0,0,0,0,0,0,0,0,0,0,0,0,0,0,0,0,0,0,0,0,0,0,0,0,0,0,0,0,0,0,0,0,0,0,0,0,0,0,0,0,-3.0927,-3.0927,0,-3.0934,-3.0935,-3.0935,-3.0871,-3.0869,-3.0867,-3.0866,-3.0873,-3.0875,-3.0877,0,0,0,0,0,0,0,0,0,0,0,0,0,-3.0857,-3.0859,-3.0927,-3.0927,-3.0927,-3.0934,-3.0935,-3.0935,-3.0871,-3.0869,-3.0867,-3.0865,-3.0873,-3.0875,-3.0877,0,0,0,0,0,0,0,0,0,0,0,0,0,-3.0879,-3.0859,-3.0927,-3.0896,-3.0894,-3.0934,-3.0935,-3.0935,-3.0872,-3.0869,-3.0866,-3.0864,-3.0872,-3.0875,-3.0877,-3.0948,0,0,-3.0886,-3.0887,0,0,0,0,0,0,0,0,-3.0877,-3.0881,-3.0901,-3.0899,-3.0896,-3.0899,-3.0913,-3.0939,-3.0872,-3.088,-3.0866,-3.0863,-3.0884,-3.0886,-3.0893,-3.0948,-3.0948,-3.0886,-3.0888,-3.0889,-3.089,0,0,0,0,0,0,0,-3.0876,-3.088,-3.093,-3.0901,-3.0898,-3.0882,-3.0882,-3.0917,-3.0897,-3.0879,-3.0875,-3.0876,-3.0882,-3.089,-3.0893,-3.0948,-3.0886,-3.0889,-3.089,-3.0891,-3.1062,-3.1064,0,0,0,0,0,0,-3.0879,-3.088,-3.093,-3.093,-3.088,-3.0886,-3.0886,-3.0901,-3.0896,-3.0893,-3.0879,-3.0873,-3.0887,-3.0889,-3.0893,-3.0974,-3.0889,-3.0892,-3.0893,-3.1059,-3.1062,-3.1065,0,0,0,0,0,0,-3.0877,-3.0884,-3.0929,-3.0904,-3.0908,-3.089,-3.0907,-3.0902,-3.091,-3.0896,-3.0892,-3.0891,-3.0885,-3.0889,-3.0935,-3.0974,-3.0893,-3.0895,-3.1056,-3.106,-3.1064,-3.1139,0,0,0,0,0,0,-3.0876,-3.0884,-3.091,-3.0905,-3.091,-3.0971,-3.0909,-3.0904,-3.0915,-3.0909,-3.0906,-3.0903,-3.0883,-3.0931,-3.0937,-3.0976,-3.0898,-3.1052,-3.1058,-3.1063,-3.1133,-3.1145,-3.1156,0,0,0,0,0,-3.0873,-3.0931,-3.0912,-3.0918,-3.0943,-3.0974,-3.0976,-3.0952,-3.0919,-3.0945,-3.0936,-3.0903,-3.0969,-3.0936,-3.0943,-3.0983,-3.1049,-3.1056,-3.1062,-3.1128,-3.1143,-3.1155,0,0,0,0,0,0,-3.0941,-3.093,-3.0908,-3.0966,-3.0971,-3.0963,-3.0995,-3.0969,-3.0984,-3.0977,-3.0946,-3.0946,-3.0997,-3.0995,-3.0958,-3.1051,-3.1003,-3.1011,-3.105,-3.1065,-3.1076,-3.1075,-3.09,0,0,0,0,0,-3.0963,-3.0989,-3.0977,-3.1029,-3.1033,-3.1014,-3.1027,-3.1008,-3.1012,-3.1014,-3.1008,-3.1013,-3.1035,-3.105,-3.1069,-3.1132,-3.1131,-3.1164,-3.1175,-3.1185,-3.1192,-3.1225,-3.1239,-3.1087,-3.1087,-3.1086,0,0,-3.1008,-3.1005,-3.1023,-3.1043,-3.1045,-3.1073,-3.1016,-3.1048,-3.1068,-3.1018,-3.1061,-3.1057,-3.1061,-3.1117,-3.114,-3.1116,-3.1234,-3.1193,-3.12,-3.1202,-3.1233,-3.1248,-3.1261,-3.1091,-3.109,-3.109,0,0,-3.1103,-3.1104,-3.1147,-3.115,-3.1154,-3.1141,-3.1152,-3.1148,-3.1143,-3.1186,-3.1149,-3.1173,-3.1211,-3.1215,-3.1222,-3.1321,-3.1291,-3.1328,-3.1388,-3.1421,-3.1433,-3.1443,-3.1478,-3.1491,-3.1335,-3.1336,-3.1336,0,-3.1158,-3.1199,-3.1172,-3.1207,-3.1217,-3.1173,-3.1217,-3.1221,-3.1231,-3.1239,-3.1212,-3.1259,-3.1258,-3.1314,-3.1338,-3.1345,-3.1356,-3.1328,-3.1433,-3.1444,-3.1453,-3.1486,-3.1499,-3.134,-3.1339,-3.1339,-3.1339,0,-3.1266,-3.1295,-3.133,-3.134,-3.1354,-3.1393,-3.1372,-3.139,-3.137,-3.136,-3.1404,-3.1402,-3.142,-3.1432,-3.1413,-3.1485,-3.147,-3.1439,-3.139,-3.1472,-3.1503,-3.1515,-3.1346,-3.1345,-3.1343,-3.1342,0,0,-3.1404,-3.14,-3.1413,-3.1418,-3.1419,-3.1441,-3.1478,-3.1496,-3.1511,-3.152,-3.155,-3.1584,-3.1555,-3.1563,-3.1544,-3.1573,-3.1651,-3.1538,-3.1538,-3.1559,-3.173,-3.1754,-3.1769,-3.1632,-3.1634,-3.1636,-3.173,0,-3.1497,-3.156,-3.1537,-3.1602,-3.1628,-3.1588,-3.162,-3.1624,-3.1616,-3.1637,-3.1628,-3.1652,-3.1613,-3.1618,-3.1645,-3.1636,-3.1685,-3.1629,-3.1659,-3.1661,-3.1659,-3.1784,-3.1809,-3.1897,-3.1742,-3.1744,-3.1745,0,-3.1614,-3.1627,-3.1694,-3.1692,-3.1702,-3.1731,-3.1746,-3.1767,-3.1771,-3.1763,-3.1773,-3.1748,-3.1784,-3.1736,-3.1785,-3.1748,-3.1759,-3.1757,-3.176,-3.1761,-3.1708,-3.1789,-3.1925,-3.1938,-3.1764,-3.1762,-3.1761,0,-3.1707,-3.1742,-3.1787,-3.1792,-3.179,-3.1812,-3.1812,-3.1813,-3.1826,-3.1839,-3.1846,-3.1864,-3.1873,-3.1887,-3.1867,-3.1834,-3.192,-3.187,-3.1914,-3.1914,-3.1933,-3.1932,-3.2073,-3.1941,-3.1941,-3.1941,-3.1941,0,-3.1813,-3.1855,-3.1829,-3.1856,-3.1902,-3.1877,-3.1923,-3.1919,-3.1921,-3.1947,-3.1913,-3.1938,-3.1911,-3.1933,-3.1918,-3.1961,-3.1966,-3.1961,-3.1956,-3.1963,-3.1964,-3.197,-3.1963,-3.1944,-3.1944,-3.1943,-3.1942,0,-3.1925,-3.1908,-3.1954,-3.1949,-3.1949,-3.1983,-3.1978,-3.2003,-3.1993,-3.2027,-3.2033,-3.2017,-3.2042,-3.2024,-3.2048,-3.2038,-3.2095,-3.2082,-3.2093,-3.209,-3.2134,-3.213,-3.2283,-3.2302,-3.2159,-3.2161,-3.2162,0,-3.1993,-3.2025,-3.2023,-3.2038,-3.204,-3.2065,-3.2077,-3.2053,-3.2068,-3.2076,-3.21,-3.2122,-3.2138,-3.218,-3.217,-3.2189,-3.2176,-3.2228,-3.2178,-3.2185,-3.2176,-3.2174,-3.2177,-3.2238,-3.224,-3.2241,-3.2242,0,-3.2116,-3.2106,-3.2126,-3.2143,-3.2159,-3.2171,-3.218,-3.2194,-3.217,-3.2188,-3.2213,-3.2226,-3.2251,-3.2273,-3.2289,-3.2289,-3.2262,-3.2258,-3.2269,-3.2277,-3.2282,-3.2279,-3.212,-3.2254,-3.2253,-3.2252,-3.2252,-3.2251,-3.2207,-3.2234,-3.2237,-3.226,-3.2264,-3.2274,-3.2297,-3.229,-3.2311,-3.233,-3.2314,-3.2344,-3.2348,-3.2366,-3.237,-3.2393,-3.2371,-3.2388,-3.2392,-3.2396,-3.2402,-3.2279,-3.2396,-3.2395,-3.2395,-3.2395,-3.2394,0,-3.2328,-3.2328,-3.235,-3.2364,-3.2382,-3.2355,-3.2365,-3.2381,-3.2408,-3.2414,-3.2431,-3.246,-3.2482,-3.2475,-3.2494,-3.2514,-3.2502,-3.252,-3.2518,-3.2518,-3.242,-3.2409,-3.2529,-3.2529,-3.2529,-3.2529,-3.2529,-3.2529,-3.2393,-3.2436,-3.2428,-3.2473,-3.2472,-3.2502,-3.2509,-3.2518,-3.2523,-3.2557,-3.2575,-3.257,-3.2571,-3.259,-3.2608,-3.2606,-3.2614,-3.2637,-3.2629,-3.2538,-3.2525,-3.2512,-3.2501,-3.2639,-3.2639,-3.2725,-3.2726,-3.2726]},{"header":{"parameterUnit":"m.s-1","parameterCategory":1,"la1":30.2991,"la2":30.254,"lo1":-89.0895,"lo2":-89.0444,"dy":0.0017,"dx":0.0017,"nx":28,"ny":28,"refTime":"2024-03-13T21:00:00:Z","depth":0,"parameterNumber":3,"parameterNumberName":"V-component_of_WINDS"},"data":[0,0,0,0,0,0,0,0,0,0,0,0,0,0,0,0,0,0,0,0,0,0,0,0,0,0,0,0,0,0,0,0,0,0,0,0,0,0,0,0,0,0,0,0,0,0,0,0,0,0,0,0,0,0,0,0,0,0,1.5347,1.5346,0,1.5329,1.5329,1.5328,1.5314,1.5314,1.5314,1.5314,1.5293,1.5292,1.5292,0,0,0,0,0,0,0,0,0,0,0,0,0,1.5367,1.5366,1.5347,1.5346,1.5346,1.5329,1.5329,1.5328,1.5314,1.5314,1.5314,1.5314,1.5293,1.5292,1.5292,0,0,0,0,0,0,0,0,0,0,0,0,0,1.5354,1.5366,1.5347,1.5337,1.5336,1.5329,1.5329,1.5328,1.5314,1.5314,1.5314,1.5313,1.5293,1.5293,1.5292,1.5292,0,0,1.529,1.529,0,0,0,0,0,0,0,0,1.5355,1.5354,1.5339,1.5338,1.5336,1.5323,1.5328,1.5316,1.5314,1.5322,1.5314,1.5313,1.5303,1.5302,1.5299,1.5291,1.529,1.529,1.529,1.5289,1.5289,0,0,0,0,0,0,0,1.5356,1.5354,1.5339,1.5338,1.5337,1.5333,1.5331,1.5326,1.5314,1.5322,1.5321,1.5319,1.5302,1.5299,1.5298,1.529,1.529,1.5289,1.5289,1.5289,1.5283,1.5283,0,0,0,0,0,0,1.5358,1.5355,1.534,1.5339,1.5345,1.5333,1.5331,1.5328,1.5314,1.5312,1.5319,1.5318,1.53,1.5299,1.5297,1.5298,1.5289,1.5289,1.5288,1.5283,1.5283,1.5284,0,0,0,0,0,0,1.5359,1.5357,1.5341,1.5347,1.5344,1.5333,1.533,1.5328,1.5324,1.5312,1.531,1.5318,1.53,1.5298,1.5294,1.5297,1.5288,1.5288,1.5283,1.5283,1.5283,1.5298,0,0,0,0,0,0,1.536,1.5358,1.5358,1.5347,1.5344,1.5338,1.533,1.5327,1.5324,1.5322,1.5311,1.5308,1.53,1.5295,1.5293,1.5296,1.5287,1.5282,1.5283,1.5283,1.5297,1.5299,1.53,0,0,0,0,0,1.536,1.5362,1.5358,1.5356,1.5344,1.5338,1.5337,1.5328,1.5324,1.5324,1.5316,1.5309,1.5297,1.5295,1.5293,1.5295,1.5282,1.5283,1.5283,1.5296,1.5298,1.53,0,0,0,0,0,0,1.5372,1.536,1.5356,1.5353,1.5347,1.5336,1.5336,1.533,1.5324,1.5323,1.5311,1.5309,1.5306,1.53,1.5298,1.5295,1.5288,1.5289,1.5299,1.5301,1.5302,1.5304,1.5287,0,0,0,0,0,1.5374,1.5371,1.5361,1.536,1.5357,1.5347,1.5344,1.5338,1.5331,1.5328,1.5319,1.5312,1.5307,1.5303,1.5298,1.5296,1.5294,1.5297,1.5298,1.5299,1.53,1.53,1.5301,1.5285,1.5285,1.5285,0,0,1.5379,1.5372,1.537,1.5362,1.5356,1.5353,1.5345,1.5341,1.5339,1.5327,1.5323,1.5317,1.5308,1.5306,1.5304,1.53,1.5304,1.53,1.5301,1.5301,1.53,1.5302,1.5303,1.5286,1.5286,1.5286,0,0,1.5386,1.538,1.5379,1.5375,1.5367,1.536,1.536,1.5351,1.5346,1.5343,1.5334,1.5331,1.5321,1.5316,1.5312,1.5319,1.5312,1.5317,1.5325,1.5325,1.5326,1.5327,1.5331,1.5332,1.5317,1.5317,1.5317,0,1.5392,1.5388,1.5379,1.5377,1.5374,1.5365,1.5364,1.5359,1.535,1.5347,1.5344,1.5333,1.5326,1.5323,1.5325,1.5322,1.5322,1.5318,1.5327,1.5328,1.5329,1.5332,1.5333,1.5318,1.5318,1.5318,1.5318,0,1.5397,1.5394,1.5394,1.5387,1.5384,1.5382,1.5373,1.5371,1.5366,1.536,1.5357,1.5348,1.5342,1.534,1.5334,1.5337,1.5335,1.5329,1.5322,1.5331,1.5334,1.5335,1.5319,1.5319,1.5319,1.5319,0,0,1.5409,1.5399,1.5399,1.5396,1.5388,1.5385,1.5384,1.5378,1.5377,1.5371,1.537,1.5363,1.5358,1.5354,1.5347,1.5347,1.5355,1.5342,1.5341,1.5345,1.5358,1.5363,1.5365,1.535,1.535,1.535,1.5359,0,1.5415,1.5413,1.5406,1.5406,1.5403,1.5395,1.5394,1.5388,1.5383,1.538,1.5374,1.537,1.5363,1.5361,1.5361,1.5354,1.5357,1.5353,1.5349,1.5349,1.5352,1.5366,1.537,1.5379,1.536,1.536,1.536,0,1.5422,1.5418,1.5418,1.5411,1.541,1.5409,1.5404,1.5402,1.5396,1.5392,1.5388,1.5381,1.5379,1.5373,1.5371,1.5368,1.5366,1.5362,1.5363,1.5362,1.5355,1.5366,1.5382,1.5383,1.5362,1.5362,1.5362,0,1.5432,1.5427,1.5426,1.5424,1.5416,1.5416,1.5412,1.5406,1.5404,1.54,1.5398,1.5393,1.5391,1.5387,1.5379,1.5375,1.5378,1.5371,1.5375,1.5375,1.5376,1.5376,1.5392,1.5374,1.5374,1.5374,1.5374,0,1.544,1.544,1.5431,1.5431,1.5432,1.5424,1.5424,1.542,1.5415,1.5414,1.5406,1.5405,1.5394,1.5392,1.5386,1.5385,1.5384,1.5381,1.5379,1.5382,1.5382,1.538,1.538,1.5374,1.5374,1.5374,1.5374,0,1.5451,1.5445,1.5444,1.5438,1.5436,1.5437,1.5431,1.543,1.5425,1.5424,1.5423,1.5415,1.5412,1.5404,1.5398,1.5394,1.5396,1.5392,1.5398,1.5398,1.5403,1.5403,1.5418,1.542,1.54,1.54,1.5401,0,1.5456,1.5457,1.5451,1.545,1.5447,1.5446,1.5444,1.5437,1.5435,1.543,1.543,1.5427,1.5424,1.542,1.5413,1.5409,1.5406,1.5412,1.5406,1.5409,1.5408,1.5408,1.5408,1.5414,1.5414,1.5414,1.5414,0,1.5467,1.5465,1.5463,1.5461,1.5459,1.5457,1.5454,1.5453,1.5445,1.5444,1.5442,1.544,1.5436,1.5433,1.5428,1.5424,1.5418,1.5416,1.5417,1.542,1.5424,1.5423,1.5403,1.5416,1.5416,1.5416,1.5416,1.5416,1.5476,1.5476,1.5473,1.5472,1.5469,1.5467,1.5467,1.5463,1.5461,1.5458,1.5454,1.5452,1.5448,1.5441,1.5438,1.5437,1.5433,1.5434,1.5435,1.5435,1.5437,1.5424,1.5436,1.5436,1.5436,1.5436,1.5436,0,1.5487,1.5485,1.5484,1.5481,1.548,1.5476,1.5473,1.5472,1.5472,1.5468,1.5466,1.5465,1.5462,1.5456,1.5453,1.5454,1.5451,1.5453,1.5453,1.5453,1.544,1.544,1.5456,1.5456,1.5456,1.5456,1.5456,1.5456,1.5492,1.5494,1.5491,1.5492,1.5489,1.5489,1.5488,1.5486,1.5484,1.5482,1.5481,1.5478,1.5473,1.5471,1.5469,1.5467,1.5467,1.547,1.5467,1.5455,1.5453,1.5452,1.5452,1.547,1.547,1.5481,1.5481,1.5481]}]]